Home > Weather > El Paso > Past weeks

Flag for U.S.A. Weather for the Past 2 Weeks in El Paso, Texas, U.S.A.

Now
48 °F

Passing clouds.


Feels Like: 47 °F
Forecast: 28 / 65 °F
Wind: 3 mph from South

Location: El Paso International Airport

Current Time: Feb 6, 2016 at 9:27:31 PM

Latest Report: Feb 6, 2016 at 7:51 PM


Visibility: 10 mi

Pressure: 30.29 "Hg (26.38 "Hg at 1142m altitude)

Humidity: 18%

Dew point: 6 °F

Location of El PasoLocation

Historic Weather in El Paso — Graph

°F

El Paso Temperature Yesterday

Maximum temperature yesterday: 54 °F (at 2:51 PM)
Minimum temperature yesterday: 27 °F (at 6:51 AM)
Average temperature yesterday: 40 °F

High & Low Weather Summary for the Past Weeks

 TemperatureHumidityPressure
High73 °F (Jan 30, 3:51 PM)86% (Feb 1, 10:51 AM)30.48 "Hg (Feb 1, 10:51 AM)
Low21 °F (Feb 6, 6:51 AM)8% (Jan 24, 2:51 PM)29.49 "Hg (Feb 1, 7:51 AM)
Average46 °F34%30.04 "Hg
* Reported Jan 22 7:51 PM — Feb 6 7:51 PM, El Paso, Weather by CustomWeather, © 2016

Note: Actual official high and low records may vary slightly from our data, if they occured in-between our weather recording intervals... More about our weather records

Advertising

El Paso Weather History for the Previous 24 Hours

 ConditionsComfort  
Time TempWeatherWind HumidityBarometerVisibility
7:51 PM
Sat, Feb 6
48 °FPassing clouds.3 mph18%30.29 "Hg10 mi
6:51 PM48 °FPassing clouds.3 mph16%30.30 "Hg10 mi
5:51 PM50 °FPassing clouds.5 mph14%30.29 "Hg10 mi
4:51 PM54 °FScattered clouds.No wind12%30.28 "Hg10 mi
3:51 PM55 °FScattered clouds.No wind11%30.28 "Hg10 mi
2:51 PM55 °FPassing clouds.5 mph12%30.29 "Hg10 mi
1:51 PM55 °FPassing clouds.9 mph11%30.32 "Hg10 mi
12:51 PM52 °FPassing clouds.3 mph15%30.35 "Hg10 mi
11:51 AM50 °FPassing clouds.3 mph17%30.40 "Hg10 mi
10:51 AM46 °FPassing clouds.8 mph20%30.44 "Hg10 mi
9:51 AM42 °FSunny.12 mph22%30.45 "Hg10 mi
8:51 AM34 °FSunny.5 mph32%30.47 "Hg10 mi
7:51 AM27 °FSunny.No wind42%30.48 "Hg10 mi
6:51 AM21 °FClear.6 mph50%30.48 "Hg8 mi
5:51 AM24 °FClear.7 mph46%30.44 "Hg10 mi
4:51 AM24 °FClear.5 mph44%30.42 "Hg10 mi
3:51 AM28 °FClear.3 mph39%30.40 "Hg10 mi
2:51 AM32 °FClear.8 mph32%30.40 "Hg10 mi
1:51 AM32 °FClear.6 mph32%30.41 "Hg10 mi
12:51 AM35 °FClear.10 mph27%30.38 "Hg10 mi
11:51 PM
Fri, Feb 5
36 °FClear.12 mph26%30.37 "Hg10 mi
10:51 PM37 °FClear.12 mph24%30.38 "Hg10 mi
9:51 PM37 °FClear.8 mph22%30.38 "Hg10 mi
Weather by CustomWeather, © 2016

See weather overviewHow to use our weather pages